Flight Information

DEPARTURE
EL MONTE, CA
Elevation:
295
Runways:
1/19 - 3995x75 - ASPH-G
Active PE Departure:
19
Current PE ATIS:
R
Altimeter:
Remarks:
ATIS:
118.75 626-444-1107
Ground:
125.9
Tower:
121.2
DESTINATION
,
Elevation:
TPA:
1000 (est.)


6774.3 NM73° True-14° Var59° HDG

Flight Plan:
(click to file on line)

1. Type
2. Aircraft Identification
3. Aircraft Type / Special Equipment
4. True Airspeed
kts
5. Departure Airport
(ICAO code)
6. Arriving Airport
(ICAO code)
7. Cruising Altitude
ft
8. Alternate Airport
(ICAO code)
9. Route of Flight
10. Remarks


00:00:00 Departure ATIS: Destination ATIS:

Clearance Limit:
Route:
Altitude: Expect in minutes
Frequency:
Transponder: (7500 Hijack / 7600 Lost Comms / 7700 Emergency)


KEMT 101545Z 00000KT 7SM CLR 21/16 A3000
Time: 2020-07-10T15:45:00Z
1594398826
Winds: calm
Visibility: 7.0 sm
Clouds (AGL): CLR
Temperature: 21.0 C
Dew Point: 16.0 C
Pressure: 30.0 in Hgbr


Notes:

Data extracted from FAA Digital Chart Supplement. Effective: 0901Z Thursday, May 21, 2020 to 0901Z Thursday, Jul 16, 2020
Current ATIS data is provided courtisy of PilotEdge.